Starlink 32580

operational
NORAD ID: 62075 Int'l Des: 2024-217 Owner: SPXS Country: US Constellation: starlink
LEOCIRCULAR

Starlink 32580について

説明を読み込み中...

リアルタイム位置

3D地球を読み込み中...

次回通過

高度履歴

Altitude vs Time

uPlot chart will show altitude changes over time

軌道要素

1 62075U 24217U 25352.86145693 .00016832 00000-0 57909-3 0 9998
2 62075 53.1560 196.7330 0001068 76.1577 283.9543 15.30201731 61227
Epoch: Dec 18, 2025 • Age: 27 hours

現在のステータス

高度 479.0 km
速度 7.63 km/s
衛星直下点 44.11°N, 121.26°W
打ち上げ日 Nov 24, 2024
運用期間 1 years
タイプ internet

技術仕様

分類 Payload
質量 730.00 kg
乾燥質量 700.00 kg
総質量 730.00 kg
長さ 0.30 m
直径 4.10 m
スパン 29.00 m
形状 Box + pan
製造者 SPXS
バスタイプ Starlink V2M
フェーズステータス In Orbit
所有者/国 SPXS/US

大規模コンステレーション

Loading constellations...